Location: Carr Mill
(33.2054°N, 85.9439°W)
Time: 23:48:35
(UTC+00:00)

YAOGAN 1 - Pass Details

Date: 29 October 2020
Orbit: 618 x 620 km, 97.9° (Epoch: 28 November)

Event Time Altitude Azimuth Distance (km) Brightness Sun altitude
Rises 23:40:18 0° 135° (SE) 2,884 5.7 -10.2°
Reaches altitude 10° 23:42:52 10° 120° (ESE) 1,982 4.7 -10.7°
Maximum altitude 23:46:09 22° 70° (ENE) 1,374 3.7 -11.4°
Drops below altitude 10° 23:49:27 10° 20° (NNE) 1,991 4.9 -12.1°
Sets 23:52:02 0° 5° (N) 2,901 5.9 -12.6°
